STARLINK-5630 (55406 NORAD) Tracking and Keplerian Element Data

This shows tracking and keplerian element data for the satellite.

Feedback or suggestion? Click here.




ElementValue
Catalog55406
NameSTARLINK-5630
Epoch Orbit1514
Epoch Day126.87479005
Epoch Year2023
RAAN182.065
Inclination69.9962
Eccentricity0.0002793
Argument of Perigee285.125
Mean Anonmoly74.9637
Mean Motion15.69917161
Decay Rate1.797E-05
L11 55406U 23014R 23126.87479005 .00001797 00000+0 16714-4 0 9990
L22 55406 69.9962 182.0650 0002793 285.1250 74.9637 15.69917161 15142



Live tracking and technical data element details for STARLINK-5630 (NORAD 55406). STARLINK-5630 can be tracked NOW for your location showing map with azimuth and elevation plus other details from your city location.







IsCatalogInMostPopularTable: catalog: 55406, numindb: 2
Update: records affected: 1



GetName: 55406 STARLINK-5630

Hit Count: updated at: Mon, 05 Jun 2023 20:59:05 GMT